Martha's Vineyard, MA

10:20 AM EDT on July 28, 2017 (GMT -0400)
Martha's Vineyard

Weather History for KMVY - October, 2013

Change the Weather History Date:

Tuesday, October 1, 2013

  Actual Average Record
Temperature  
Mean Temperature 58 °F -  
Max Temperature 75 °F 67 °F 79 °F (1959)
Min Temperature 41 °F 49 °F 34 °F (2005)
Degree Days  
Heating Degree Days 7    
Growing Degree Days 8 (Base 50)    
Moisture  
Dew Point 46 °F    
Average Humidity 83    
Maximum Humidity 100    
Minimum Humidity 41    
Precipitation  
Precipitation 0.00 in - - ()
Sea Level Pressure  
Sea Level Pressure 29.92 in    
Wind  
Wind Speed 3 mph (NW)    
Max Wind Speed 12 mph    
Max Gust Speed 16 mph    
Visibility 6 miles    
Events Fog    
Averages and records for this station are not official NWS values.
T = Trace of Precipitation, MM = Missing Value Source: NWS Daily Summary

Daily Weather History Graph

Daily Weather History Graph

Search for Another Location

Airport or City:

Trip Planner

Search our weather history database for the weather conditions in past years. The results will help you decide how hot, cold, wet, or windy it might be!

Date:

Astronomy

Oct. 01, 2013 Rise Set
Actual Time 6:39 AM EDT 6:23 PM EDT
Civil Twilight 6:11 AM EDT 6:51 PM EDT
Nautical Twilight 5:39 AM EDT 7:23 PM EDT
Astronomical Twilight 5:07 AM EDT 7:55 PM EDT
Moon 3:08 AM EDT (10/1) 4:27 PM EDT (10/1)
Length of Visible Light 12h 39m
Length of Day
11h 44m
Waning Crescent, 12% of the Moon is Illuminated
Oct 1
Waning Crescent
Oct 4
New
Oct 11
First Quarter
Oct 18
Full
Oct 26
Last Quarter

Hourly Weather History & Observations

Time (EDT) Temp. Windchill Dew Point Humidity Pressure Visibility Wind Dir Wind Speed Gust Speed Precip Events Conditions
12:00 AM 42.8 °F 41.1 °F 41.0 °F 93% 29.96 in 1.2 mi WNW 3.5 mph - N/A   Scattered Clouds
12:03 AM 42.8 °F 40.1 °F 39.2 °F 87% 29.96 in 3.0 mi WNW 4.6 mph - N/A   Scattered Clouds
12:12 AM 42.8 °F 40.1 °F 39.2 °F 87% 29.96 in 1.0 mi WNW 4.6 mph - N/A   Mist
12:19 AM 42.8 °F 40.1 °F 42.8 °F 100% 29.96 in 0.5 mi NW 4.6 mph - N/A Fog Fog
12:37 AM 44.6 °F - 42.8 °F 93% 29.96 in 3.0 mi Calm Calm - N/A   Mostly Cloudy
12:49 AM 42.8 °F - 41.0 °F 93% 29.95 in 2.5 mi Calm Calm - N/A   Scattered Clouds
12:50 AM 42.8 °F - 41.0 °F 93% 29.95 in 1.5 mi Calm Calm - N/A   Scattered Clouds
12:53 AM 41.0 °F - 39.9 °F 96% 29.95 in 1.0 mi Calm Calm - N/A   Mist
1:02 AM 42.8 °F 41.1 °F 39.2 °F 87% 29.95 in 0.8 mi North 3.5 mph - N/A   Mist
1:09 AM 42.8 °F 41.1 °F 39.2 °F 87% 29.95 in 2.0 mi North 3.5 mph - N/A   Mostly Cloudy
1:18 AM 42.8 °F 40.1 °F 41.0 °F 93% 29.95 in 0.8 mi North 4.6 mph - N/A   Mist
1:30 AM 42.8 °F 40.1 °F 39.2 °F 87% 29.95 in 1.0 mi North 4.6 mph - N/A   Partly Cloudy
1:33 AM 44.6 °F 40.7 °F 42.8 °F 93% 29.95 in 3.0 mi North 6.9 mph - N/A   Partly Cloudy
1:53 AM 44.1 °F - 43.0 °F 96% 29.95 in 10.0 mi Calm Calm - N/A   Partly Cloudy
2:28 AM 44.6 °F - 42.8 °F 93% 29.94 in 2.5 mi Calm Calm - N/A   Clear
2:35 AM 42.8 °F - 41.0 °F 93% 29.94 in 10.0 mi Calm Calm - N/A   Clear
2:53 AM 42.1 °F - 39.0 °F 89% 29.94 in 10.0 mi Calm Calm - N/A   Clear
3:53 AM 45.0 °F - 43.0 °F 93% 29.92 in 10.0 mi Calm Calm - N/A   Clear
4:53 AM 42.1 °F 40.2 °F 39.0 °F 89% 29.93 in 10.0 mi NW 3.5 mph - N/A   Clear
5:53 AM 43.0 °F 38.8 °F 39.9 °F 89% 29.93 in 10.0 mi WNW 6.9 mph - N/A   Clear
6:53 AM 50.0 °F - 48.0 °F 93% 29.94 in 10.0 mi NW 4.6 mph - N/A   Clear
7:53 AM 54.0 °F - 51.1 °F 90% 29.94 in 10.0 mi NW 5.8 mph - N/A   Clear
8:53 AM 62.1 °F - 54.0 °F 75% 29.95 in 10.0 mi NNW 8.1 mph - N/A   Clear
9:53 AM 66.9 °F - 53.1 °F 61% 29.94 in 10.0 mi NNW 8.1 mph - N/A   Clear
10:53 AM 68.0 °F - 52.0 °F 56% 29.93 in 10.0 mi NW 9.2 mph - N/A   Clear
11:53 AM 71.1 °F - 50.0 °F 47% 29.92 in 10.0 mi NNW 11.5 mph - N/A   Clear
12:53 PM 73.0 °F - 51.1 °F 46% 29.91 in 10.0 mi NW 8.1 mph - N/A   Clear
1:53 PM 73.9 °F - 50.0 °F 43% 29.89 in 10.0 mi NW 10.4 mph 16.1 mph N/A   Clear
2:53 PM 75.0 °F - 50.0 °F 41% 29.87 in 10.0 mi NW 9.2 mph - N/A   Clear
3:53 PM 73.9 °F - 50.0 °F 43% 29.87 in 10.0 mi NW 5.8 mph - N/A   Clear
4:53 PM 72.0 °F - 52.0 °F 49% 29.87 in 10.0 mi SW 6.9 mph - N/A   Clear
5:53 PM 68.0 °F - 55.9 °F 65% 29.89 in 10.0 mi Calm Calm - N/A   Clear
6:53 PM 61.0 °F - 55.0 °F 81% 29.89 in 10.0 mi Calm Calm - N/A   Clear
7:53 PM 57.0 °F - 55.0 °F 93% 29.91 in 10.0 mi Calm Calm - N/A   Clear
8:53 PM 52.0 °F - 50.0 °F 93% 29.91 in 8.0 mi Calm Calm - N/A   Clear
9:00 PM 51.8 °F - 48.2 °F 88% 29.91 in 1.8 mi Calm Calm - N/A   Clear
9:03 PM 51.8 °F - 48.2 °F 88% 29.91 in 1.0 mi Calm Calm - N/A   Mist
9:12 PM 50.0 °F - 48.2 °F 94% 29.91 in 0.5 mi Calm Calm - N/A Fog Fog
9:19 PM 51.8 °F - 48.2 °F 88% 29.91 in 10.0 mi Calm Calm - N/A   Clear
9:53 PM 50.0 °F - 46.9 °F 89% 29.91 in 10.0 mi Calm Calm - N/A   Clear
10:53 PM 48.9 °F - 46.9 °F 93% 29.90 in 10.0 mi Calm Calm - N/A   Clear
11:09 PM 48.2 °F - 46.4 °F 93% 29.90 in 10.0 mi Calm Calm - N/A   Mostly Cloudy
11:14 PM 48.2 °F - 46.4 °F 93% 29.90 in 2.5 mi Calm Calm - N/A   Mostly Cloudy
11:17 PM 48.2 °F - 46.4 °F 93% 29.90 in 0.8 mi Calm Calm - N/A   Mostly Cloudy
11:38 PM 48.2 °F - 46.4 °F 93% 29.90 in 0.2 mi Calm Calm - N/A   Unknown
11:53 PM 48.0 °F - 46.9 °F 96% 29.90 in 0.2 mi Calm Calm - N/A   Unknown